Albany, GA

1:23 PM EDT on October 20, 2017 (GMT -0400)
Southwest Georgia Regional

Weather History for KABY - April, 2013

Change the Weather History Date:

Wednesday, April 3, 2013

  Actual Average Record
Temperature  
Mean Temperature 59 °F 63 °F  
Max Temperature 66 °F 76 °F 89 °F (2012)
Min Temperature 52 °F 51 °F 30 °F (1971)
Degree Days  
Heating Degree Days 6 4  
Month to date heating degree days 7 12  
Since 1 July heating degree days 1631 1781  
Cooling Degree Days 0 2  
Month to date cooling degree days 2 6  
Year to date cooling degree days 41 44  
Growing Degree Days 8 (Base 50)    
Moisture  
Dew Point 49 °F    
Average Humidity 69    
Maximum Humidity 93    
Minimum Humidity 44    
Precipitation  
Precipitation 0.02 in 0.16 in 1.14 in (2017)
Month to date precipitation 0.04 0.50  
Year to date precipitation 12.96 14.53  
Sea Level Pressure  
Sea Level Pressure 30.08 in    
Wind  
Wind Speed 9 mph (NE)    
Max Wind Speed 17 mph    
Max Gust Speed 25 mph    
Visibility 8 miles    
Events Rain    
T = Trace of Precipitation, MM = Missing Value Source: NWS Daily Summary

Daily Weather History Graph

Daily Weather History Graph

Search for Another Location

Airport or City:

Trip Planner

Search our weather history database for the weather conditions in past years. The results will help you decide how hot, cold, wet, or windy it might be!

Date:

Astronomy

Apr. 03, 2013 Rise Set
Actual Time 7:22 AM EDT 7:57 PM EDT
Civil Twilight 6:58 AM EDT 8:22 PM EDT
Nautical Twilight 6:29 AM EDT 8:51 PM EDT
Astronomical Twilight 5:59 AM EDT 9:20 PM EDT
Moon 2:38 AM EDT (4/3) 1:31 PM EDT (4/3)
Length of Visible Light 13h 24m
Length of Day
12h 35m
Last Quarter, 45% of the Moon is Illuminated
Apr 3
Last Quarter
Apr 10
New
Apr 18
First Quarter
Apr 25
Full
May 2
Last Quarter

Hourly Weather History & Observations

Time (EDT) Temp. Dew Point Humidity Pressure Visibility Wind Dir Wind Speed Gust Speed Precip Events Conditions
12:53 AM 55.9 °F 48.9 °F 77% 30.08 in 6.0 mi Calm Calm - N/A   Haze
1:53 AM 53.1 °F 48.9 °F 86% 30.08 in 7.0 mi Calm Calm - N/A   Clear
2:53 AM 52.0 °F 48.9 °F 89% 30.07 in 7.0 mi Calm Calm - N/A   Clear
3:53 AM 57.9 °F 46.0 °F 65% 30.06 in 9.0 mi NNE 9.2 mph - N/A   Clear
4:53 AM 57.9 °F 41.0 °F 53% 30.07 in 10.0 mi NE 9.2 mph - N/A   Clear
5:53 AM 57.0 °F 39.9 °F 53% 30.07 in 10.0 mi NE 11.5 mph - N/A   Clear
6:53 AM 55.9 °F 39.9 °F 55% 30.09 in 10.0 mi ENE 8.1 mph - N/A   Clear
7:53 AM 55.0 °F 41.0 °F 59% 30.11 in 10.0 mi ENE 8.1 mph - N/A   Clear
8:53 AM 59.0 °F 39.9 °F 49% 30.12 in 10.0 mi ENE 11.5 mph - N/A   Clear
9:53 AM 61.0 °F 41.0 °F 48% 30.11 in 10.0 mi ENE 8.1 mph - N/A   Scattered Clouds
10:02 AM 62.6 °F 42.8 °F 48% 30.12 in 10.0 mi NE 8.1 mph - N/A   Mostly Cloudy
10:53 AM 62.1 °F 43.0 °F 50% 30.14 in 10.0 mi NE 8.1 mph - N/A   Mostly Cloudy
11:53 AM 64.0 °F 43.0 °F 46% 30.11 in 10.0 mi NE 10.4 mph - N/A   Mostly Cloudy
12:53 PM 64.9 °F 44.1 °F 47% 30.10 in 10.0 mi ENE 9.2 mph - N/A   Mostly Cloudy
1:53 PM 64.9 °F 46.0 °F 50% 30.12 in 10.0 mi ENE 6.9 mph - 0.00 in Rain Light Rain
2:53 PM 64.0 °F 48.9 °F 58% 30.12 in 8.0 mi NE 4.6 mph - 0.00 in Rain Light Rain
3:53 PM 61.0 °F 55.9 °F 83% 30.12 in 3.0 mi NNW 4.6 mph - 0.02 in Rain Rain
4:40 PM 59.0 °F 53.6 °F 82% 30.12 in 8.0 mi NE 6.9 mph - 0.00 in Rain Light Rain
4:53 PM 57.9 °F 54.0 °F 87% 30.12 in 6.0 mi NNE 6.9 mph - 0.00 in Rain Light Rain
5:53 PM 57.0 °F 55.0 °F 93% 30.08 in 9.0 mi ENE 12.7 mph - 0.00 in Rain Light Rain
6:53 PM 57.0 °F 55.0 °F 93% 30.04 in 8.0 mi ENE 12.7 mph - 0.00 in Rain Light Rain
6:56 PM 57.2 °F 55.4 °F 94% 30.04 in 8.0 mi ENE 16.1 mph - 0.00 in Rain Light Rain
7:38 PM 57.2 °F 55.4 °F 94% 30.02 in 8.0 mi ENE 12.7 mph 18.4 mph 0.00 in   Overcast
7:53 PM 57.0 °F 55.0 °F 93% 30.02 in 8.0 mi East 13.8 mph - 0.00 in   Overcast
8:00 PM 57.2 °F 53.6 °F 88% 30.01 in 8.0 mi ENE 12.7 mph 21.9 mph N/A   Mostly Cloudy
8:44 PM 57.2 °F 53.6 °F 88% 30.05 in 9.0 mi ENE 10.4 mph - N/A   Mostly Cloudy
8:53 PM 57.0 °F 54.0 °F 89% 30.05 in 9.0 mi ENE 10.4 mph - N/A   Overcast
9:53 PM 57.9 °F 55.0 °F 90% 30.08 in 8.0 mi ENE 10.4 mph - N/A   Overcast
10:53 PM 57.9 °F 55.0 °F 90% 30.07 in 8.0 mi ENE 11.5 mph - N/A   Overcast
11:53 PM 59.0 °F 55.9 °F 90% 30.07 in 7.0 mi East 11.5 mph - N/A   Overcast